owner,sensor,date,latitude,longitude,vertical_datum,wind_speed,wind_to_direction,wind_speed_of_gust,qcFlag 
TCOON,ioos:station:TCOON:003:1,2015-03-01T00:00:00Z,26.8015,-97.4706,0.0,4.5,324.0,6.0,'11111222,11111222,11111222' 
TCOON,ioos:station:TCOON:003:1,2015-03-01T00:06:00Z,26.8015,-97.4706,0.0,4.7,318.0,5.1,'11111222,11111222,11111222' 
TCOON,ioos:station:TCOON:003:1,2015-03-01T00:12:00Z,26.8015,-97.4706,0.0,4.6,322.0,5.3,'11111222,11111222,11111222' 
TCOON,ioos:station:TCOON:003:1,2015-03-01T00:18:00Z,26.8015,-97.4706,0.0,4.6,322.0,5.3,'1111122,1111122,1111122' 
TCOON,ioos:station:TCOON:003:1,2015-03-01T00:24:00Z,26.8015,-97.4706,0.0,5.0,326.0,5.4,'11111222,11111222,11111222' 
TCOON,ioos:station:TCOON:003:1,2015-03-01T00:30:00Z,26.8015,-97.4706,0.0,5.1,327.0,5.7,'11111222,11111222,11111222' 
TCOON,ioos:station:TCOON:003:1,2015-03-01T00:36:00Z,26.8015,-97.4706,0.0,5.2,329.0,5.7,'11111222,11111222,11111222' 
TCOON,ioos:station:TCOON:003:1,2015-03-01T00:42:00Z,26.8015,-97.4706,0.0,4.9,329.0,5.3,'11111222,11111222,11111222' 
TCOON,ioos:station:TCOON:003:1,2015-03-01T00:48:00Z,26.8015,-97.4706,0.0,5.2,325.0,5.6,'11111222,11111222,11111222' 
TCOON,ioos:station:TCOON:003:1,2015-03-01T00:54:00Z,26.8015,-97.4706,0.0,5.8,326.0,6.3,'11111222,11111222,11111222' 
TCOON,ioos:station:TCOON:003:1,2015-03-01T01:00:00Z,26.8015,-97.4706,0.0,5.3,330.0,6.2,'11111222,11111222,11111222' 
TCOON,ioos:station:TCOON:003:1,2015-03-01T01:06:00Z,26.8015,-97.4706,0.0,4.9,325.0,6.0,'11111222,11111222,11111222' 
TCOON,ioos:station:TCOON:003:1,2015-03-01T01:12:00Z,26.8015,-97.4706,0.0,4.9,325.0,6.0,'1111122,1111122,1111122' 
TCOON,ioos:station:TCOON:003:1,2015-03-01T01:18:00Z,26.8015,-97.4706,0.0,4.5,312.0,5.2,'11111222,11111222,11111222' 
TCOON,ioos:station:TCOON:003:1,2015-03-01T01:24:00Z,26.8015,-97.4706,0.0,4.9,320.0,5.7,'11111222,11111222,11111222' 
TCOON,ioos:station:TCOON:003:1,2015-03-01T01:30:00Z,26.8015,-97.4706,0.0,4.7,320.0,5.4,'11111222,11111222,11111222' 
TCOON,ioos:station:TCOON:003:1,2015-03-01T01:36:00Z,26.8015,-97.4706,0.0,4.8,311.0,5.3,'11111222,11111222,11111222' 
TCOON,ioos:station:TCOON:003:1,2015-03-01T01:42:00Z,26.8015,-97.4706,0.0,4.9,314.0,5.4,'11111222,11111222,11111222' 
TCOON,ioos:station:TCOON:003:1,2015-03-01T01:48:00Z,26.8015,-97.4706,0.0,4.7,318.0,5.4,'11111222,11111222,11111222' 
TCOON,ioos:station:TCOON:003:1,2015-03-01T01:54:00Z,26.8015,-97.4706,0.0,4.9,321.0,5.6,'11111222,11111222,11111222' 
TCOON,ioos:station:TCOON:003:1,2015-03-01T02:00:00Z,26.8015,-97.4706,0.0,5.0,322.0,5.9,'11111222,11111222,11111222' 
TCOON,ioos:station:TCOON:003:1,2015-03-01T02:06:00Z,26.8015,-97.4706,0.0,4.8,313.0,5.2,'11111222,11111222,11111222' 
TCOON,ioos:station:TCOON:003:1,2015-03-01T02:12:00Z,26.8015,-97.4706,0.0,4.8,313.0,5.2,'1111122,1111122,1111122' 
TCOON,ioos:station:TCOON:003:1,2015-03-01T02:18:00Z,26.8015,-97.4706,0.0,4.2,305.0,4.7,'11111222,11111222,11111222' 
TCOON,ioos:station:TCOON:003:1,2015-03-01T02:24:00Z,26.8015,-97.4706,0.0,4.6,309.0,5.0,'11111222,11111222,11111222' 
TCOON,ioos:station:TCOON:003:1,2015-03-01T02:30:00Z,26.8015,-97.4706,0.0,5.4,316.0,5.9,'11111222,11111222,11111222' 
TCOON,ioos:station:TCOON:003:1,2015-03-01T02:36:00Z,26.8015,-97.4706,0.0,5.1,315.0,6.0,'11111222,11111222,11111222' 
TCOON,ioos:station:TCOON:003:1,2015-03-01T02:42:00Z,26.8015,-97.4706,0.0,4.5,309.0,5.7,'11111222,11111222,11111222' 
TCOON,ioos:station:TCOON:003:1,2015-03-01T02:48:00Z,26.8015,-97.4706,0.0,4.7,301.0,5.5,'11111222,11111222,11111222' 
TCOON,ioos:station:TCOON:003:1,2015-03-01T02:54:00Z,26.8015,-97.4706,0.0,5.3,298.0,5.9,'11111222,11111222,11111222' 
TCOON,ioos:station:TCOON:003:1,2015-03-01T03:00:00Z,26.8015,-97.4706,0.0,4.9,306.0,5.8,'11111222,11111222,11111222' 
TCOON,ioos:station:TCOON:003:1,2015-03-01T03:06:00Z,26.8015,-97.4706,0.0,4.8,302.0,5.6,'11111222,11111222,11111222' 
TCOON,ioos:station:TCOON:003:1,2015-03-01T03:12:00Z,26.8015,-97.4706,0.0,5.2,301.0,5.8,'11111222,11111222,11111222' 
TCOON,ioos:station:TCOON:003:1,2015-03-01T03:18:00Z,26.8015,-97.4706,0.0,5.2,301.0,5.8,'1111122,1111122,1111122' 
TCOON,ioos:station:TCOON:003:1,2015-03-01T03:24:00Z,26.8015,-97.4706,0.0,5.1,309.0,5.8,'11111222,11111222,11111222' 
TCOON,ioos:station:TCOON:003:1,2015-03-01T03:30:00Z,26.8015,-97.4706,0.0,5.1,307.0,6.0,'11111222,11111222,11111222' 
TCOON,ioos:station:TCOON:003:1,2015-03-01T03:36:00Z,26.8015,-97.4706,0.0,5.3,301.0,6.1,'11111222,11111222,11111222' 
TCOON,ioos:station:TCOON:003:1,2015-03-01T03:42:00Z,26.8015,-97.4706,0.0,5.6,305.0,6.3,'11111222,11111222,11111222' 
TCOON,ioos:station:TCOON:003:1,2015-03-01T04:00:00Z,26.8015,-97.4706,0.0,5.3,308.0,6.2,'11111222,11111222,11111222' 
TCOON,ioos:station:TCOON:003:1,2015-03-01T04:06:00Z,26.8015,-97.4706,0.0,5.8,314.0,6.5,'11111222,11111222,11111222' 
TCOON,ioos:station:TCOON:003:1,2015-03-01T04:12:00Z,26.8015,-97.4706,0.0,5.8,314.0,6.5,'1111122,1111122,1111122' 
TCOON,ioos:station:TCOON:003:1,2015-03-01T04:18:00Z,26.8015,-97.4706,0.0,5.3,312.0,5.9,'11111222,11111222,11111222' 
TCOON,ioos:station:TCOON:003:1,2015-03-01T04:24:00Z,26.8015,-97.4706,0.0,5.5,311.0,6.1,'11111222,11111222,11111222' 
TCOON,ioos:station:TCOON:003:1,2015-03-01T04:30:00Z,26.8015,-97.4706,0.0,5.1,310.0,5.9,'11111222,11111222,11111222' 
TCOON,ioos:station:TCOON:003:1,2015-03-01T04:36:00Z,26.8015,-97.4706,0.0,5.8,313.0,6.4,'11111222,11111222,11111222' 
TCOON,ioos:station:TCOON:003:1,2015-03-01T04:42:00Z,26.8015,-97.4706,0.0,5.5,312.0,6.2,'11111222,11111222,11111222' 
TCOON,ioos:station:TCOON:003:1,2015-03-01T04:48:00Z,26.8015,-97.4706,0.0,5.2,313.0,6.3,'11111222,11111222,11111222' 
TCOON,ioos:station:TCOON:003:1,2015-03-01T04:54:00Z,26.8015,-97.4706,0.0,5.1,308.0,6.0,'11111222,11111222,11111222' 
TCOON,ioos:station:TCOON:003:1,2015-03-01T05:00:00Z,26.8015,-97.4706,0.0,5.1,312.0,6.0,'11111222,11111222,11111222' 
TCOON,ioos:station:TCOON:003:1,2015-03-01T05:06:00Z,26.8015,-97.4706,0.0,5.2,309.0,5.9,'11111222,11111222,11111222' 
TCOON,ioos:station:TCOON:003:1,2015-03-01T05:12:00Z,26.8015,-97.4706,0.0,5.8,320.0,6.5,'11111222,11111222,11111222' 
TCOON,ioos:station:TCOON:003:1,2015-03-01T05:18:00Z,26.8015,-97.4706,0.0,5.8,320.0,6.5,'1111122,1111122,1111122' 
TCOON,ioos:station:TCOON:003:1,2015-03-01T05:24:00Z,26.8015,-97.4706,0.0,5.2,312.0,5.9,'11111222,11111222,11111222' 
TCOON,ioos:station:TCOON:003:1,2015-03-01T05:30:00Z,26.8015,-97.4706,0.0,4.9,310.0,5.3,'11111222,11111222,11111222' 
TCOON,ioos:station:TCOON:003:1,2015-03-01T05:36:00Z,26.8015,-97.4706,0.0,5.7,306.0,6.6,'11111222,11111222,11111222' 
TCOON,ioos:station:TCOON:003:1,2015-03-01T05:42:00Z,26.8015,-97.4706,0.0,5.6,305.0,6.4,'11111222,11111222,11111222' 
TCOON,ioos:station:TCOON:003:1,2015-03-01T05:48:00Z,26.8015,-97.4706,0.0,5.3,308.0,6.3,'11111222,11111222,11111222' 
TCOON,ioos:station:TCOON:003:1,2015-03-01T05:54:00Z,26.8015,-97.4706,0.0,5.6,310.0,6.2,'11111222,11111222,11111222' 
TCOON,ioos:station:TCOON:003:1,2015-03-01T06:12:00Z,26.8015,-97.4706,0.0,5.2,306.0,6.8,'11111222,11111222,11111222' 
TCOON,ioos:station:TCOON:003:1,2015-03-01T06:18:00Z,26.8015,-97.4706,0.0,5.2,306.0,6.8,'1111122,1111122,1111122' 
TCOON,ioos:station:TCOON:003:1,2015-03-01T06:36:00Z,26.8015,-97.4706,0.0,5.4,309.0,6.9,'11111222,11111222,11111222' 
TCOON,ioos:station:TCOON:003:1,2015-03-01T06:42:00Z,26.8015,-97.4706,0.0,6.0,317.0,6.7,'11111222,11111222,11111222' 
TCOON,ioos:station:TCOON:003:1,2015-03-01T06:48:00Z,26.8015,-97.4706,0.0,6.3,311.0,6.8,'11111222,11111222,11111222' 
TCOON,ioos:station:TCOON:003:1,2015-03-01T06:54:00Z,26.8015,-97.4706,0.0,6.2,309.0,6.9,'11111222,11111222,11111222' 
TCOON,ioos:station:TCOON:003:1,2015-03-01T07:00:00Z,26.8015,-97.4706,0.0,6.4,310.0,6.9,'11111222,11111222,11111222' 
TCOON,ioos:station:TCOON:003:1,2015-03-01T07:06:00Z,26.8015,-97.4706,0.0,6.3,311.0,6.7,'11111222,11111222,11111222' 
TCOON,ioos:station:TCOON:003:1,2015-03-01T07:12:00Z,26.8015,-97.4706,0.0,6.1,310.0,6.8,'11111222,11111222,11111222' 
TCOON,ioos:station:TCOON:003:1,2015-03-01T07:18:00Z,26.8015,-97.4706,0.0,6.1,310.0,6.8,'1111122,1111122,1111122' 
TCOON,ioos:station:TCOON:003:1,2015-03-01T07:24:00Z,26.8015,-97.4706,0.0,6.6,306.0,7.5,'11111222,11111222,11111222' 
TCOON,ioos:station:TCOON:003:1,2015-03-01T07:30:00Z,26.8015,-97.4706,0.0,7.3,309.0,8.1,'11111222,11111222,11111222' 
TCOON,ioos:station:TCOON:003:1,2015-03-01T07:36:00Z,26.8015,-97.4706,0.0,5.9,302.0,7.7,'11111222,11111222,11111222' 
TCOON,ioos:station:TCOON:003:1,2015-03-01T07:42:00Z,26.8015,-97.4706,0.0,5.9,301.0,6.8,'11111222,11111222,11111222' 
TCOON,ioos:station:TCOON:003:1,2015-03-01T07:48:00Z,26.8015,-97.4706,0.0,6.0,307.0,7.1,'11111222,11111222,11111222' 
TCOON,ioos:station:TCOON:003:1,2015-03-01T07:54:00Z,26.8015,-97.4706,0.0,6.2,306.0,6.8,'11111222,11111222,11111222' 
TCOON,ioos:station:TCOON:003:1,2015-03-01T08:00:00Z,26.8015,-97.4706,0.0,6.2,309.0,7.1,'11111222,11111222,11111222' 
TCOON,ioos:station:TCOON:003:1,2015-03-01T08:06:00Z,26.8015,-97.4706,0.0,5.9,303.0,7.0,'11111222,11111222,11111222' 
TCOON,ioos:station:TCOON:003:1,2015-03-01T08:12:00Z,26.8015,-97.4706,0.0,6.7,304.0,7.5,'11111222,11111222,11111222' 
TCOON,ioos:station:TCOON:003:1,2015-03-01T08:18:00Z,26.8015,-97.4706,0.0,6.7,304.0,7.5,'1111122,1111122,1111122' 
TCOON,ioos:station:TCOON:003:1,2015-03-01T08:36:00Z,26.8015,-97.4706,0.0,6.1,304.0,6.9,'11111222,11111222,11111222' 
TCOON,ioos:station:TCOON:003:1,2015-03-01T08:42:00Z,26.8015,-97.4706,0.0,6.5,314.0,7.8,'11111222,11111222,11111222' 
TCOON,ioos:station:TCOON:003:1,2015-03-01T08:48:00Z,26.8015,-97.4706,0.0,6.8,312.0,7.9,'11111222,11111222,11111222' 
TCOON,ioos:station:TCOON:003:1,2015-03-01T08:54:00Z,26.8015,-97.4706,0.0,6.9,319.0,7.4,'11111222,11111222,11111222' 
TCOON,ioos:station:TCOON:003:1,2015-03-01T09:00:00Z,26.8015,-97.4706,0.0,6.5,324.0,7.7,'11111222,11111222,11111222' 
TCOON,ioos:station:TCOON:003:1,2015-03-01T09:06:00Z,26.8015,-97.4706,0.0,6.6,316.0,7.8,'11111222,11111222,11111222' 
TCOON,ioos:station:TCOON:003:1,2015-03-01T09:12:00Z,26.8015,-97.4706,0.0,6.6,323.0,7.4,'11111222,11111222,11111222' 
TCOON,ioos:station:TCOON:003:1,2015-03-01T09:18:00Z,26.8015,-97.4706,0.0,6.6,323.0,7.4,'1111122,1111122,1111122' 
TCOON,ioos:station:TCOON:003:1,2015-03-01T09:24:00Z,26.8015,-97.4706,0.0,6.3,316.0,7.0,'11111222,11111222,11111222' 
TCOON,ioos:station:TCOON:003:1,2015-03-01T09:30:00Z,26.8015,-97.4706,0.0,5.7,316.0,6.6,'11111222,11111222,11111222' 
TCOON,ioos:station:TCOON:003:1,2015-03-01T09:36:00Z,26.8015,-97.4706,0.0,6.4,309.0,6.8,'11111222,11111222,11111222' 
TCOON,ioos:station:TCOON:003:1,2015-03-01T09:42:00Z,26.8015,-97.4706,0.0,6.0,310.0,6.8,'11111222,11111222,11111222' 
TCOON,ioos:station:TCOON:003:1,2015-03-01T09:48:00Z,26.8015,-97.4706,0.0,5.8,313.0,6.9,'11111222,11111222,11111222' 
TCOON,ioos:station:TCOON:003:1,2015-03-01T09:54:00Z,26.8015,-97.4706,0.0,6.0,313.0,6.8,'11111222,11111222,11111222' 
TCOON,ioos:station:TCOON:003:1,2015-03-01T10:00:00Z,26.8015,-97.4706,0.0,5.8,307.0,6.6,'11111222,11111222,11111222' 
TCOON,ioos:station:TCOON:003:1,2015-03-01T10:06:00Z,26.8015,-97.4706,0.0,6.1,310.0,7.1,'11111222,11111222,11111222' 
TCOON,ioos:station:TCOON:003:1,2015-03-01T10:12:00Z,26.8015,-97.4706,0.0,6.1,310.0,7.1,'1111122,1111122,1111122' 
TCOON,ioos:station:TCOON:003:1,2015-03-01T10:18:00Z,26.8015,-97.4706,0.0,6.4,309.0,7.1,'11111222,11111222,11111222' 
TCOON,ioos:station:TCOON:003:1,2015-03-01T10:24:00Z,26.8015,-97.4706,0.0,6.7,321.0,7.4,'11111222,11111222,11111222' 
TCOON,ioos:station:TCOON:003:1,2015-03-01T10:30:00Z,26.8015,-97.4706,0.0,6.6,314.0,7.8,'11111222,11111222,11111222' 
TCOON,ioos:station:TCOON:003:1,2015-03-01T10:36:00Z,26.8015,-97.4706,0.0,5.9,298.0,7.0,'11111222,11111222,11111222' 
TCOON,ioos:station:TCOON:003:1,2015-03-01T10:42:00Z,26.8015,-97.4706,0.0,5.9,300.0,6.6,'11111222,11111222,11111222' 
TCOON,ioos:station:TCOON:003:1,2015-03-01T10:48:00Z,26.8015,-97.4706,0.0,6.2,309.0,6.9,'11111222,11111222,11111222' 
TCOON,ioos:station:TCOON:003:1,2015-03-01T10:54:00Z,26.8015,-97.4706,0.0,6.4,303.0,7.3,'11111222,11111222,11111222' 
TCOON,ioos:station:TCOON:003:1,2015-03-01T11:00:00Z,26.8015,-97.4706,0.0,6.5,306.0,7.2,'11111222,11111222,11111222' 
TCOON,ioos:station:TCOON:003:1,2015-03-01T11:06:00Z,26.8015,-97.4706,0.0,6.3,309.0,7.1,'11111222,11111222,11111222' 
TCOON,ioos:station:TCOON:003:1,2015-03-01T11:12:00Z,26.8015,-97.4706,0.0,6.3,309.0,7.1,'1111122,1111122,1111122' 
TCOON,ioos:station:TCOON:003:1,2015-03-01T11:18:00Z,26.8015,-97.4706,0.0,7.0,307.0,7.8,'11111222,11111222,11111222' 
TCOON,ioos:station:TCOON:003:1,2015-03-01T11:24:00Z,26.8015,-97.4706,0.0,7.5,315.0,8.3,'11111222,11111222,11111222' 
TCOON,ioos:station:TCOON:003:1,2015-03-01T11:30:00Z,26.8015,-97.4706,0.0,7.8,315.0,8.6,'11111222,11111222,11111222' 
TCOON,ioos:station:TCOON:003:1,2015-03-01T11:36:00Z,26.8015,-97.4706,0.0,8.6,320.0,9.6,'11111222,11111222,11111222' 
TCOON,ioos:station:TCOON:003:1,2015-03-01T11:42:00Z,26.8015,-97.4706,0.0,8.2,317.0,9.9,'11111222,11111222,11111222' 
TCOON,ioos:station:TCOON:003:1,2015-03-01T11:48:00Z,26.8015,-97.4706,0.0,6.4,324.0,8.6,'11111222,11111222,11111222' 
TCOON,ioos:station:TCOON:003:1,2015-03-01T11:54:00Z,26.8015,-97.4706,0.0,5.1,323.0,6.2,'11111222,11111222,11111222' 
TCOON,ioos:station:TCOON:003:1,2015-03-01T12:00:00Z,26.8015,-97.4706,0.0,5.7,309.0,6.4,'11111222,11111222,11111222' 
TCOON,ioos:station:TCOON:003:1,2015-03-01T12:06:00Z,26.8015,-97.4706,0.0,5.6,328.0,6.5,'11111222,11111222,11111222' 
TCOON,ioos:station:TCOON:003:1,2015-03-01T12:12:00Z,26.8015,-97.4706,0.0,5.6,328.0,6.5,'1111122,1111122,1111122' 
TCOON,ioos:station:TCOON:003:1,2015-03-01T12:18:00Z,26.8015,-97.4706,0.0,4.5,335.0,5.4,'11111222,11111222,11111222' 
TCOON,ioos:station:TCOON:003:1,2015-03-01T12:24:00Z,26.8015,-97.4706,0.0,4.5,333.0,5.2,'11111222,11111222,11111222' 
TCOON,ioos:station:TCOON:003:1,2015-03-01T12:30:00Z,26.8015,-97.4706,0.0,4.6,323.0,5.1,'11111222,11111222,11111222' 
TCOON,ioos:station:TCOON:003:1,2015-03-01T12:36:00Z,26.8015,-97.4706,0.0,4.0,323.0,4.5,'11111222,11111222,11111222' 
TCOON,ioos:station:TCOON:003:1,2015-03-01T12:42:00Z,26.8015,-97.4706,0.0,4.9,337.0,5.3,'11111222,11111222,11111222' 
TCOON,ioos:station:TCOON:003:1,2015-03-01T12:48:00Z,26.8015,-97.4706,0.0,4.3,336.0,5.5,'11111222,11111222,11111222' 
TCOON,ioos:station:TCOON:003:1,2015-03-01T12:54:00Z,26.8015,-97.4706,0.0,3.7,309.0,4.3,'11111222,11111222,11111222' 
TCOON,ioos:station:TCOON:003:1,2015-03-01T13:00:00Z,26.8015,-97.4706,0.0,3.5,307.0,4.3,'11111222,11111222,11111222' 
TCOON,ioos:station:TCOON:003:1,2015-03-01T13:12:00Z,26.8015,-97.4706,0.0,3.6,319.0,4.2,'1111122,1111122,1111122' 
TCOON,ioos:station:TCOON:003:1,2015-03-01T13:18:00Z,26.8015,-97.4706,0.0,4.6,308.0,5.5,'11111222,11111222,11111222' 
TCOON,ioos:station:TCOON:003:1,2015-03-01T13:24:00Z,26.8015,-97.4706,0.0,4.4,315.0,5.3,'11111222,11111222,11111222' 
TCOON,ioos:station:TCOON:003:1,2015-03-01T13:30:00Z,26.8015,-97.4706,0.0,4.3,309.0,5.0,'11111222,11111222,11111222' 
TCOON,ioos:station:TCOON:003:1,2015-03-01T13:36:00Z,26.8015,-97.4706,0.0,4.5,310.0,5.1,'11111222,11111222,11111222' 
TCOON,ioos:station:TCOON:003:1,2015-03-01T13:42:00Z,26.8015,-97.4706,0.0,4.7,302.0,5.2,'11111222,11111222,11111222' 
TCOON,ioos:station:TCOON:003:1,2015-03-01T13:48:00Z,26.8015,-97.4706,0.0,5.0,305.0,5.5,'11111222,11111222,11111222' 
TCOON,ioos:station:TCOON:003:1,2015-03-01T13:54:00Z,26.8015,-97.4706,0.0,4.2,294.0,5.1,'11111222,11111222,11111222' 
TCOON,ioos:station:TCOON:003:1,2015-03-01T14:00:00Z,26.8015,-97.4706,0.0,4.3,295.0,4.9,'11111222,11111222,11111222' 
TCOON,ioos:station:TCOON:003:1,2015-03-01T14:06:00Z,26.8015,-97.4706,0.0,3.7,300.0,4.7,'11111222,11111222,11111222' 
TCOON,ioos:station:TCOON:003:1,2015-03-01T14:12:00Z,26.8015,-97.4706,0.0,3.7,300.0,4.7,'1111122,1111122,1111122' 
TCOON,ioos:station:TCOON:003:1,2015-03-01T14:18:00Z,26.8015,-97.4706,0.0,4.8,322.0,5.5,'11111222,11111222,11111222' 
TCOON,ioos:station:TCOON:003:1,2015-03-01T14:36:00Z,26.8015,-97.4706,0.0,3.2,324.0,3.9,'11111222,11111222,11111222' 
TCOON,ioos:station:TCOON:003:1,2015-03-01T14:42:00Z,26.8015,-97.4706,0.0,3.3,317.0,3.9,'11111222,11111222,11111222' 
TCOON,ioos:station:TCOON:003:1,2015-03-01T14:48:00Z,26.8015,-97.4706,0.0,3.1,311.0,3.6,'11111222,11111222,11111222' 
TCOON,ioos:station:TCOON:003:1,2015-03-01T14:54:00Z,26.8015,-97.4706,0.0,3.6,293.0,4.4,'11111222,11111222,11111222' 
TCOON,ioos:station:TCOON:003:1,2015-03-01T15:00:00Z,26.8015,-97.4706,0.0,3.5,297.0,4.4,'11111222,11111222,11111222' 
TCOON,ioos:station:TCOON:003:1,2015-03-01T15:06:00Z,26.8015,-97.4706,0.0,3.9,287.0,4.7,'11111222,11111222,11111222' 
TCOON,ioos:station:TCOON:003:1,2015-03-01T15:12:00Z,26.8015,-97.4706,0.0,3.7,303.0,4.6,'11111222,11111222,11111222' 
TCOON,ioos:station:TCOON:003:1,2015-03-01T15:18:00Z,26.8015,-97.4706,0.0,3.7,303.0,4.6,'1111122,1111122,1111122' 
TCOON,ioos:station:TCOON:003:1,2015-03-01T15:24:00Z,26.8015,-97.4706,0.0,4.1,303.0,4.6,'11111222,11111222,11111222' 
TCOON,ioos:station:TCOON:003:1,2015-03-01T15:30:00Z,26.8015,-97.4706,0.0,4.4,316.0,4.7,'11111222,11111222,11111222' 
TCOON,ioos:station:TCOON:003:1,2015-03-01T15:36:00Z,26.8015,-97.4706,0.0,3.7,304.0,4.7,'11111222,11111222,11111222' 
TCOON,ioos:station:TCOON:003:1,2015-03-01T15:42:00Z,26.8015,-97.4706,0.0,3.7,303.0,4.1,'11111222,11111222,11111222' 
TCOON,ioos:station:TCOON:003:1,2015-03-01T15:48:00Z,26.8015,-97.4706,0.0,3.3,309.0,3.8,'11111222,11111222,11111222' 
TCOON,ioos:station:TCOON:003:1,2015-03-01T15:54:00Z,26.8015,-97.4706,0.0,3.2,316.0,3.6,'11111222,11111222,11111222' 
TCOON,ioos:station:TCOON:003:1,2015-03-01T16:00:00Z,26.8015,-97.4706,0.0,2.7,315.0,3.5,'11111222,11111222,11111222' 
TCOON,ioos:station:TCOON:003:1,2015-03-01T16:06:00Z,26.8015,-97.4706,0.0,3.0,311.0,3.6,'11111222,11111222,11111222' 
TCOON,ioos:station:TCOON:003:1,2015-03-01T16:12:00Z,26.8015,-97.4706,0.0,3.0,311.0,3.6,'1111122,1111122,1111122' 
TCOON,ioos:station:TCOON:003:1,2015-03-01T16:18:00Z,26.8015,-97.4706,0.0,2.6,314.0,3.3,'11111222,11111222,11111222' 
TCOON,ioos:station:TCOON:003:1,2015-03-01T16:24:00Z,26.8015,-97.4706,0.0,3.3,316.0,3.6,'11111222,11111222,11111222' 
TCOON,ioos:station:TCOON:003:1,2015-03-01T16:30:00Z,26.8015,-97.4706,0.0,3.6,310.0,4.0,'11111222,11111222,11111222' 
TCOON,ioos:station:TCOON:003:1,2015-03-01T16:36:00Z,26.8015,-97.4706,0.0,3.5,308.0,4.2,'11111222,11111222,11111222' 
TCOON,ioos:station:TCOON:003:1,2015-03-01T16:42:00Z,26.8015,-97.4706,0.0,3.3,301.0,4.1,'11111222,11111222,11111222' 
TCOON,ioos:station:TCOON:003:1,2015-03-01T16:48:00Z,26.8015,-97.4706,0.0,3.3,303.0,4.0,'11111222,11111222,11111222' 
TCOON,ioos:station:TCOON:003:1,2015-03-01T16:54:00Z,26.8015,-97.4706,0.0,3.6,315.0,4.3,'11111222,11111222,11111222' 
TCOON,ioos:station:TCOON:003:1,2015-03-01T17:00:00Z,26.8015,-97.4706,0.0,3.2,327.0,3.8,'11111222,11111222,11111222' 
TCOON,ioos:station:TCOON:003:1,2015-03-01T17:06:00Z,26.8015,-97.4706,0.0,3.9,328.0,4.2,'11111222,11111222,11111222' 
TCOON,ioos:station:TCOON:003:1,2015-03-01T17:12:00Z,26.8015,-97.4706,0.0,3.9,328.0,4.2,'1111122,1111122,1111122' 
TCOON,ioos:station:TCOON:003:1,2015-03-01T17:18:00Z,26.8015,-97.4706,0.0,3.5,339.0,4.1,'11111222,11111222,11111222' 
TCOON,ioos:station:TCOON:003:1,2015-03-01T17:24:00Z,26.8015,-97.4706,0.0,3.2,322.0,4.1,'11111222,11111222,11111222' 
TCOON,ioos:station:TCOON:003:1,2015-03-01T17:30:00Z,26.8015,-97.4706,0.0,3.4,333.0,3.8,'11111222,11111222,11111222' 
TCOON,ioos:station:TCOON:003:1,2015-03-01T17:36:00Z,26.8015,-97.4706,0.0,2.8,316.0,3.3,'11111222,11111222,11111222' 
TCOON,ioos:station:TCOON:003:1,2015-03-01T17:42:00Z,26.8015,-97.4706,0.0,3.6,311.0,4.2,'11111222,11111222,11111222' 
TCOON,ioos:station:TCOON:003:1,2015-03-01T17:48:00Z,26.8015,-97.4706,0.0,3.8,314.0,4.3,'11111222,11111222,11111222' 
TCOON,ioos:station:TCOON:003:1,2015-03-01T17:54:00Z,26.8015,-97.4706,0.0,3.2,316.0,4.1,'11111222,11111222,11111222' 
TCOON,ioos:station:TCOON:003:1,2015-03-01T18:00:00Z,26.8015,-97.4706,0.0,2.8,312.0,3.3,'11111222,11111222,11111222' 
TCOON,ioos:station:TCOON:003:1,2015-03-01T18:06:00Z,26.8015,-97.4706,0.0,3.4,318.0,3.6,'11111222,11111222,11111222' 
TCOON,ioos:station:TCOON:003:1,2015-03-01T18:12:00Z,26.8015,-97.4706,0.0,3.3,312.0,3.6,'11111222,11111222,11111222' 
TCOON,ioos:station:TCOON:003:1,2015-03-01T18:18:00Z,26.8015,-97.4706,0.0,3.3,312.0,3.6,'1111122,1111122,1111122' 
TCOON,ioos:station:TCOON:003:1,2015-03-01T18:24:00Z,26.8015,-97.4706,0.0,3.3,315.0,3.9,'11111222,11111222,11111222' 
TCOON,ioos:station:TCOON:003:1,2015-03-01T18:30:00Z,26.8015,-97.4706,0.0,4.0,317.0,4.3,'11111222,11111222,11111222' 
TCOON,ioos:station:TCOON:003:1,2015-03-01T18:36:00Z,26.8015,-97.4706,0.0,4.2,312.0,4.6,'11111222,11111222,11111222' 
TCOON,ioos:station:TCOON:003:1,2015-03-01T18:42:00Z,26.8015,-97.4706,0.0,3.5,318.0,4.5,'11111222,11111222,11111222' 
TCOON,ioos:station:TCOON:003:1,2015-03-01T18:48:00Z,26.8015,-97.4706,0.0,3.6,308.0,4.2,'11111222,11111222,11111222' 
TCOON,ioos:station:TCOON:003:1,2015-03-01T18:54:00Z,26.8015,-97.4706,0.0,3.8,315.0,4.6,'11111222,11111222,11111222' 
TCOON,ioos:station:TCOON:003:1,2015-03-01T19:00:00Z,26.8015,-97.4706,0.0,3.6,316.0,4.7,'11111222,11111222,11111222' 
TCOON,ioos:station:TCOON:003:1,2015-03-01T19:06:00Z,26.8015,-97.4706,0.0,3.3,321.0,3.9,'11111222,11111222,11111222' 
TCOON,ioos:station:TCOON:003:1,2015-03-01T19:12:00Z,26.8015,-97.4706,0.0,3.3,322.0,3.7,'11111222,11111222,11111222' 
TCOON,ioos:station:TCOON:003:1,2015-03-01T19:18:00Z,26.8015,-97.4706,0.0,3.3,322.0,3.7,'1111122,1111122,1111122' 
TCOON,ioos:station:TCOON:003:1,2015-03-01T19:24:00Z,26.8015,-97.4706,0.0,3.7,320.0,4.0,'11111222,11111222,11111222' 
TCOON,ioos:station:TCOON:003:1,2015-03-01T19:30:00Z,26.8015,-97.4706,0.0,3.6,321.0,4.2,'11111222,11111222,11111222' 
TCOON,ioos:station:TCOON:003:1,2015-03-01T19:36:00Z,26.8015,-97.4706,0.0,3.1,317.0,3.8,'11111222,11111222,11111222' 
TCOON,ioos:station:TCOON:003:1,2015-03-01T19:42:00Z,26.8015,-97.4706,0.0,3.2,321.0,4.0,'11111222,11111222,11111222' 
TCOON,ioos:station:TCOON:003:1,2015-03-01T19:48:00Z,26.8015,-97.4706,0.0,3.5,322.0,4.1,'11111222,11111222,11111222' 
TCOON,ioos:station:TCOON:003:1,2015-03-01T19:54:00Z,26.8015,-97.4706,0.0,3.3,331.0,4.2,'11111222,11111222,11111222' 
TCOON,ioos:station:TCOON:003:1,2015-03-01T20:00:00Z,26.8015,-97.4706,0.0,3.2,333.0,4.1,'11111222,11111222,11111222' 
TCOON,ioos:station:TCOON:003:1,2015-03-01T20:06:00Z,26.8015,-97.4706,0.0,3.8,330.0,4.3,'11111222,11111222,11111222' 
TCOON,ioos:station:TCOON:003:1,2015-03-01T20:12:00Z,26.8015,-97.4706,0.0,3.8,330.0,4.3,'1111122,1111122,1111122' 
TCOON,ioos:station:TCOON:003:1,2015-03-01T20:18:00Z,26.8015,-97.4706,0.0,3.9,335.0,4.3,'11111222,11111222,11111222' 
TCOON,ioos:station:TCOON:003:1,2015-03-01T20:24:00Z,26.8015,-97.4706,0.0,4.0,321.0,4.7,'11111222,11111222,11111222' 
TCOON,ioos:station:TCOON:003:1,2015-03-01T20:30:00Z,26.8015,-97.4706,0.0,4.8,321.0,5.1,'11111222,11111222,11111222' 
TCOON,ioos:station:TCOON:003:1,2015-03-01T20:36:00Z,26.8015,-97.4706,0.0,3.7,325.0,4.6,'11111222,11111222,11111222' 
TCOON,ioos:station:TCOON:003:1,2015-03-01T20:42:00Z,26.8015,-97.4706,0.0,3.9,329.0,4.5,'11111222,11111222,11111222' 
TCOON,ioos:station:TCOON:003:1,2015-03-01T20:48:00Z,26.8015,-97.4706,0.0,3.7,341.0,4.3,'11111222,11111222,11111222' 
TCOON,ioos:station:TCOON:003:1,2015-03-01T20:54:00Z,26.8015,-97.4706,0.0,3.8,328.0,4.2,'11111222,11111222,11111222' 
TCOON,ioos:station:TCOON:003:1,2015-03-01T21:00:00Z,26.8015,-97.4706,0.0,3.2,349.0,4.2,'11111222,11111222,11111222' 
TCOON,ioos:station:TCOON:003:1,2015-03-01T21:06:00Z,26.8015,-97.4706,0.0,2.8,338.0,3.4,'11111222,11111222,11111222' 
TCOON,ioos:station:TCOON:003:1,2015-03-01T21:12:00Z,26.8015,-97.4706,0.0,2.8,338.0,3.4,'1111122,1111122,1111122' 
TCOON,ioos:station:TCOON:003:1,2015-03-01T21:18:00Z,26.8015,-97.4706,0.0,4.2,327.0,4.9,'11111222,11111222,11111222' 
TCOON,ioos:station:TCOON:003:1,2015-03-01T21:24:00Z,26.8015,-97.4706,0.0,4.0,330.0,4.9,'11111222,11111222,11111222' 